NOAA 17 (27453 NORAD) Tracking and Keplerian Element Data

This shows tracking and keplerian element data for the satellite.

Feedback or suggestion? Click here.




ElementValue
Catalog27453
NameNOAA 17
Epoch Orbit22112
Epoch Day351.7314703
Epoch Year2025
RAAN310.5701
Inclination98.8404
Eccentricity0.0012028
Argument of Perigee152.9046
Mean Anonmoly207.2764
Mean Motion14.26134539
Decay Rate1.56E-06
L11 27453U 02032A 25351.73147030 .00000156 00000+0 84194-4 0 9990
L22 27453 98.8404 310.5701 0012028 152.9046 207.2764 14.26134539221127



Live tracking and technical data element details for NOAA 17 (NORAD 27453). NOAA 17 can be tracked NOW for your location showing map with azimuth and elevation plus other details from your city location.







IsCatalogInMostPopularTable: catalog: 27453, numindb: 678
Update: records affected: 1



GetName: 27453 NOAA 17

Hit Count: updated at: Sat, 14 Mar 2026 02:38:17 GMT